Regional Weather Roundup
Issued by NWS

Home | Current Version | Previous Version | Text Only | Print | Product List | Glossary Off
Versions: 1 2 3 4 5 6 7 8 9 10 11 12 13 14 15 16 17 18 19 20 21 22 23 24 25 26 27 28 29 30 31 32 33 34 35 36 37 38 39 40 41 42 43 44 45 46 47 48 49 50

000
ASUS43 KFSD 210910
RWRSD

WEATHER ROUNDUP FOR SOUTH DAKOTA
NATIONAL WEATHER SERVICE SIOUX FALLS SD
300 AM CST TUE NOV 21 2017

NOTE: "FAIR" INDICATES FEW OR NO CLOUDS BELOW 12,000 FEET WITH NO
SIGNIFICANT WEATHER AND/OR OBSTRUCTIONS TO VISIBILITY.


SDZ001>005-009-010-012>017-211000-
NORTHWEST AND NORTH CENTRAL SOUTH DAKOTA

CITY           SKY/WX    TMP DP  RH WIND       PRES   REMARKS
BUFFALO          N/A     20  11  68 N20       29.99R WCI   4
FAITH            N/A     26  14  60 N24       30.02R WCI  11
MOBRIDGE       PTCLDY    18   5  57 NW25G38   30.01R WCI   0
$$

SDZ012>016-024>037-041>051-057-063-072>074-211000-
SOUTHWEST AND SOUTH CENTRAL SOUTH DAKOTA

CITY           SKY/WX    TMP DP  RH WIND       PRES   REMARKS
RAPID CTY ARPT FLURRIES  28  24  85 N21G30    30.05R WCI  15
PIERRE         FLURRIES  34  16  47 N23G31    29.98R WCI  22
CUSTER         CLOUDY    33  26  75 CALM      29.94R
ELLSWORTH AFB  FLURRIES  28  28 100 NW22G28   30.04  WCI  15
PHILIP         CLOUDY    31  29  92 W10       30.04R WCI  22
PINE RIDGE     CLOUDY    36  25  64 N20       30.01R
SPEARFISH      LGT SNOW  27  25  93 W10       30.07R WCI  17
WINNER         LGT SNOW  34  31  88 NW15      30.00R FOG     WCI  24
$$

SDZ004>011-016>023-039-040-211000-
NORTHEAST SOUTH DAKOTA

CITY           SKY/WX    TMP DP  RH WIND       PRES   REMARKS
ABERDEEN       CLOUDY    17   6  62 NW23G30   29.97R WCI  -1
WATERTOWN      CLOUDY    24  13  62 NW26G39   29.83R WCI   8
BROOKINGS      CLOUDY    34  16  47 NW33G43   29.80R WCI  20
SISSETON         N/A     20   9  62 NW25G36   29.85R WCI   2
$$

SDZ017-020-022-023-036>040-048>070-211000-
SOUTHEAST SOUTH DAKOTA

CITY           SKY/WX    TMP DP  RH WIND       PRES   REMARKS
SIOUX FALLS    CLOUDY    38  20  48 NW13      29.84R
HURON          CLOUDY    33  16  49 NW26G35   29.91R WCI  20
CHAMBERLAIN    LGT SNOW  34  34 100 W12G17    29.97R WCI  26
MITCHELL       CLOUDY    41  20  43 NW21G29   29.90R
YANKTON        CLOUDY    39  21  48 NW14      29.88R
$$

ABBREVIATIONS USED IN REMARKS
   TC - TEMPERATURE IN CELSIUS
  WCI - WIND CHILL INDEX
   HX - HEAT INDEX
  VSB - VISIBILITY





USA.gov is the U.S. government's official web portal to all federal, state and local government web resources and services.